THORAD DELTA 1 DEB, 8175

Orbit data source: Space-Track

THORAD DELTA 1 DEB, 8175 is space debris in SSO originally from a launch on Fri, 15 Nov 1974 UTC launched from the Air Force Western Test Range (AFWTR). Debris objects in space refer to the collection of defunct objects orbiting the Earth. Examples of debris include non-operational satellites, rocket bodies, and fragments generated from explosions, collisions, or faulty payload assembly.

Loading next visibility...
Identifier
8175, 1974-089AR
Orbit
SSO
Country
Flag of USUS
Related business
Manufacturer
Unknown
Mission
Spacecraft
Bus & Motor
Unknown
Mass
Unknown
Launch date (UTC)
1974-11-15 (51 years ago)
Launch vehicle
Unknown
Launch site
Air Force Western Test Range (AFWTR)
Object type
Payload
Rocket body
Debris
Shape & HBR
Unknown shape, 0.1 m
Radar Cross Section
Small (<0.1 m²)

Expand to show TLE details & history
Last TLE update: 2 days ago

TLE from 2 days ago
0 THORAD DELTA 1 DEB
1 08175U 74089AR  25352.37858612  .00008718  00000-0  42234-1 0  9996
2 08175 102.6374 275.1341 0213121   4.4945 120.8279 12.66620253306578
Epoch: 2025-12-18T09:05Z
TLE epoch observation values (Epoch: 2025-12-18T09:05:09.840Z)
Latitude
50.92364°
Longitude
-112.44312°
Altitude
1,491.135 km
Speed
7.083 km/s
True Right ascension
07h 24m 19s
True Declination
50° 46' 15"
Sunlit
Object was in full shadow at epoch
Visualization orbit readout
Latitude
Unknown
Longitude
Unknown
Altitude
Unknown
Speed
Unknown
Apparent Right ascension
Unknown
Apparent Declination
Unknown
Sunlit
N/A
Visualization observer readout
Local Sidereal Time
03:18:56
Azimuth
Unknown
Elevation
Unknown
Doppler factor
Unknown
Orbital elements
Apogee altitude
1,558.942 km
Perigee altitude
1,227.69 km
Semi-major axis
7,771.453 km
Eccentricity
0.02131
Inclination
102.6374°
RAAN
275.1341°
Arg. of periapsis
4.4945°
True anomaly
122.89632°
Mean anomaly
120.8279°
Eccentric anomaly
121.86497°
Mean motion
3.16803 °/min
Orbital period
113.64 mins
BSTAR
0.042234
Loading maneuver chart data...
Computing Atmospheric mass density...
Loading historical data...
Loading historical data...
Loading historical data...
Loading historical data...
Loading historical data...
Loading historical data...
Loading historical data...

Documentation

Showing up to 5 results
|